This is the latest recevied weather packets stored in our database for station/object DB0PDF-L4. If no packets are shown the sender has not sent any weather packets the latest 1 day(s).
| Time | Temp. | Humidity | Pressure | Rain* | Wind** | Luminosity | Snow |
|---|---|---|---|---|---|---|---|
| 1778046418 | 11.11° C | 57% | 998 hPa | - | - | - | - |
| 1778045517 | 11.11° C | 56% | 998 hPa | - | - | - | - |
| 1778041912 | 11.67° C | 56% | 998 hPa | - | - | - | - |
| 1778041011 | 11.67° C | 56% | 998 hPa | - | - | - | - |
| 1778040110 | 11.67° C | 57% | 998 hPa | - | - | - | - |
| 1778039209 | 11.67° C | 56% | 998 hPa | - | - | - | - |
| 1778038308 | 11.67° C | 57% | 998 hPa | - | - | - | - |
| 1778037407 | 11.67° C | 58% | 999 hPa | - | - | - | - |
| 1778036505 | 12.22° C | 57% | 999 hPa | - | - | - | - |
| 1778035604 | 12.78° C | 56% | 999 hPa | - | - | - | - |
| 1778034703 | 13.33° C | 54% | 999 hPa | - | - | - | - |
| 1778033802 | 13.89° C | 53% | 999 hPa | - | - | - | - |
| 1778032901 | 13.89° C | 53% | 999 hPa | - | - | - | - |
| 1778032000 | 13.89° C | 53% | 999 hPa | - | - | - | - |
| 1778031099 | 13.89° C | 53% | 999 hPa | - | - | - | - |
| 1778030198 | 14.44° C | 53% | 999 hPa | - | - | - | - |
| 1778023890 | 15° C | 61% | 1000 hPa | - | - | - | - |
| 1778022088 | 15° C | 63% | 1000 hPa | - | - | - | - |
| 1778021187 | 15° C | 64% | 1000 hPa | - | - | - | - |
| 1778019384 | 14.44° C | 64% | 1000 hPa | - | - | - | - |
| 1778018483 | 14.44° C | 63% | 1000 hPa | - | - | - | - |
| 1778017582 | 14.44° C | 64% | 1000 hPa | - | - | - | - |
| 1778016681 | 14.44° C | 64% | 1000 hPa | - | - | - | - |
| 1778015780 | 14.44° C | 64% | 1000 hPa | - | - | - | - |
* Rain since midnight (hover to see other rain measurements)
** Current wind speed in m/s (hover to see current wind gust speed)